Regional Weather Roundup
Issued by NWS

Home | Current Version | Previous Version | Graphics & Text | Print | Product List | Glossary On
Versions: 1 2 3 4 5 6 7 8 9 10 11 12 13 14 15 16 17 18 19 20 21 22 23 24 25 26 27 28 29 30 31 32 33 34 35 36 37 38 39 40 41 42 43 44 45 46 47 48 49 50
000
ASUS45 KCYS 210010
RWRWY

WYOMING REGIONAL WEATHER ROUNDUP
NATIONAL WEATHER SERVICE CHEYENNE WY
600 PM MDT MON APR 20 2015

NOTE:  "FAIR" INDICATES FEW OR NO CLOUDS BELOW 12,000 FEET
WITH NO SIGNIFICANT WEATHER AND/OR OBSTRUCTIONS TO VISIBILITY.

WYZ001-210100-
YELLOWSTONE NATIONAL PARK

CITY           SKY/WX    TMP DP  RH WIND       PRES   REMARKS
LK YELLOWSTONE   N/A     46  17  31 VRB6      29.98S
6HR MIN TEMP:  38; 6HR MAX TEMP:  49;

W YELLOWSTONE  NOT AVBL

$$
WYZ002>013-054>058-071-098>099-210100-
NORTHERN WYOMING

CITY           SKY/WX    TMP DP  RH WIND       PRES   REMARKS
JACKSON        SUNNY     55  18  22 CALM      29.92F
CODY           FAIR      55  25  30 NE7       29.89S
GREYBULL       FAIR      62  17  17 N14G21    29.85F
6HR MIN TEMP:  53; 6HR MAX TEMP:  63;

WORLAND        FAIR      60  16  18 N10G22    29.86F
6HR MIN TEMP:  52; 6HR MAX TEMP:  62;

SHERIDAN       FAIR      54  22  28 NW17      29.88S
6HR MIN TEMP:  52; 6HR MAX TEMP:  56;

BUFFALO        FAIR      53  20  27 N20G36    29.89R
6HR MIN TEMP:  49; 6HR MAX TEMP:  55;

GILLETTE       FAIR      53  18  25 NW18G26   29.86S
6HR MIN TEMP:  46; 6HR MAX TEMP:  55;

HULETT         FAIR      50  18  27 NW12G25   29.87R
NEWCASTLE      FAIR      52  18  25 NW17G30   29.85S

$$
WYZ014>020-022>026-101>103-210100-
CENTRAL WYOMING

CITY           SKY/WX    TMP DP  RH WIND       PRES   REMARKS
BIG PINEY      FAIR      58  13  17 NW16G25   29.93R
6HR MIN TEMP:  49; 6HR MAX TEMP:  60;

PINEDALE       FAIR      54  12  19 NW20G28   29.93S
DUBOIS         FAIR      52  10  19 N15G21    29.91S
LANDER         FAIR      55  23  28 E6        29.87S
6HR MIN TEMP:  49; 6HR MAX TEMP:  57;

RIVERTON       FAIR      56  20  24 VRB6      29.90S
6HR MIN TEMP:  47; 6HR MAX TEMP:  57;

CASPER         FAIR      53  14  21 NW18      29.89S
6HR MIN TEMP:  47; 6HR MAX TEMP:  55;

DOUGLAS        FAIR      54  23  30 N13G22    29.87S
6HR MIN TEMP:  46; 6HR MAX TEMP:  57;


$$
WYZ021-027>030-104>119-210100-
SOUTHERN WYOMING

CITY           SKY/WX    TMP DP  RH WIND       PRES   REMARKS
EVANSTON       FAIR      58  19  22 NW15      29.95S
6HR MIN TEMP:  52; 6HR MAX TEMP:  61;

KEMMERER       FAIR      55  19  24 W18G30    29.95S
FORT BRIDGER   CLEAR     61  16  17 NW15G23   29.96S
ROCK SPRINGS   FAIR      59  20  22 NW14G23   29.89F
6HR MIN TEMP:  45; 6HR MAX TEMP:  59;

DIXON          FAIR      55  24  29 NW13G20   29.95S
RAWLINS        FAIR      52  16  24 N14       29.93S
6HR MIN TEMP:  42; 6HR MAX TEMP:  53;

SARATOGA       FAIR      48  25  40 NW10G16   29.94F
LARAMIE        FAIR      32  25  75 W8        29.94S WCI  25
6HR MIN TEMP:  25; 6HR MAX TEMP:  36;

CHEYENNE       FAIR      48  20  32 N17G30    29.91R
6HR MIN TEMP:  43; 6HR MAX TEMP:  48;

TORRINGTON     PTSUNNY   53  23  31 N13       29.84F
6HR MIN TEMP:  47; 6HR MAX TEMP:  56;

PINE BLUFFS    MOCLDY    50  27  40 N12       29.90S

$$


USA.gov is the U.S. government's official web portal to all federal, state and local government web resources and services.